Location: Ammerl�gen
(47.2167°N, 9.6000°E)
Time: 09:24:56
(UTC+00:00)

Iridium 4 Rocket - Pass Details

Date: 04 August 2021
Orbit: 584 x 904 km, 86.9° (Epoch: 18 September)

Event Time Altitude Azimuth Distance (km) Brightness Sun altitude
Rises 02:11:01 0° 345° (NNW) 3,467 7.4 -15.9°
Reaches altitude 10° 02:13:53 10° 332° (NNW) 2,556 6.5 -15.6°
Maximum altitude 02:18:18 23° 283° (WNW) 1,823 5.2 -15.1°
Enters shadow 02:20:45 18° 250° (WSW) 2,084 5.2 -14.8°
